Tracking 19638 objects as of 19-May-2019
HD Live streaming from Space Station
objects crossing your sky now

IRS 1B

Track IRS 1B now!
10-day predictions
IRS 1B is classified as:


NORAD ID: 21688
Int'l Code: 1991-061A
Perigee: 892.9 km
Apogee: 927.4 km
Inclination: 99.1 °
Period: 103.1 minutes
Semi major axis: 7281 km
RCS: 4.2636 m2 (large)
Launch date: August 29, 1991
Source: India (IND)
Launch site: TYURATAM MISSILE AND SPACE COMPLEX (TTMTR)
aabbcc
Your satellite tracking list
Your tracking list is empty




NASA's NSSDC Master Catalog

Two Line Element Set (TLE):
1 21688U 91061A   19139.51299013  .00000284  00000-0  23334-3 0  9997
2 21688  99.1162  83.9662 0023699 212.9845 263.3996 13.97335457307587
Source of the keplerian elements: AFSPC